Location: Eschenfelden
(49.5802°N, 11.6163°E)
Time: 07:12:21
(UTC+00:00)

Daily predictions for brighter satellites

Satellite Brightness Start Highest point End
(mag) Time Altitude Azimuth Time Altitude Azimuth Time Altitude Azimuth
COSMO-SKYMED 1 3.8 16:27:27 10° NE 16:30:49 22° E 16:34:11 10° SE
H-2A R/B 4.3 16:28:08 10° S 16:31:37 40° W 16:35:10 10° NNW
CORIOLIS 4.1 16:26:47 10° SSE 16:32:06 76° ENE 16:37:29 10° NNW
H-2A R/B 2.1 16:28:51 10° NNE 16:33:03 83° WNW 16:37:09 10° SSW
FengYun 1-2 T 4.3 16:27:42 10° SSE 16:33:15 62° ENE 16:38:49 10° N
Cosmos 1110 Rocket 4.1 16:29:16 10° S 16:34:22 55° ESE 16:39:28 10° NNE
NOSS 2-2 (C) 4.4 16:31:39 10° NW 16:36:52 66° NE 16:44:08 10° SE
Lacrosse 5 2.8 16:34:18 10° W 16:39:04 40° NNW 16:43:52 10° ENE
Timation 2 Rocket 4.1 16:32:52 10° NNW 16:39:27 74° ENE 16:46:15 10° SE
Cosmos 1825 Rocket 3.5 16:35:49 10° N 16:40:18 75° E 16:44:43 10° SSE
ADEOS Rocket 3.4 16:36:43 10° NNE 16:43:04 80° WNW 16:50:07 10° SSW
Envisat 3.9 16:38:35 10° S 16:43:33 54° W 16:48:33 10° NNW
Cosmos 292 Rocket 4.1 16:39:06 10° S 16:43:39 45° ESE 16:48:16 10° NE
Aureole 3 4.0 16:41:57 10° SE 16:44:18 20° E 16:46:35 10° NE
Meteor 2-21 Rocket 4.4 16:38:53 10° N 16:45:05 71° ENE 16:51:12 10° SSE
Okean O Rocket 2.0 16:41:16 10° S 16:45:36 71° WSW 16:49:58 10° NNW
FALCON 9 DEB 3.7 16:42:32 10° WNW 16:45:50 45° N 16:48:52 12° ENE
YAOGAN 1 3.6 16:44:09 10° ESE 16:47:38 24° ENE 16:51:07 10° N
ERBS 3.9 16:45:21 10° WNW 16:48:11 24° N 16:51:00 10° NE
USA 281 3.6 16:41:52 10° SSE 16:48:24 70° WSW 16:54:59 10° NNW
FALCON 9 DEB 4.0 16:45:43 10° SSW 16:48:37 32° SE 16:51:05 13° E
FALCON 9 DEB 3.8 16:49:53 10° SSW 16:52:51 35° SE 16:55:10 14° E
Feng Yun 1-1 Rocket 4.4 16:48:04 10° SSE 16:53:56 71° ENE 16:59:52 10° NNW
CZ-2C R/B 3.9 16:48:50 10° SE 16:53:56 34° ENE 16:58:55 10° N
SMAP 3.8 16:49:56 10° S 16:54:31 60° WSW 16:59:09 10° NNW
Cosmos 2219 3.3 16:49:00 10° NNW 16:54:45 64° ENE 17:00:28 10° SE
Cosmos 1455 4.0 16:54:50 10° ESE 16:56:10 13° E 16:56:10 13° E
Cosmos 1726 Rocket 3.5 16:53:21 10° S 16:57:38 60° E 17:01:58 10° NNE
Cosmos 1943 Rocket 4.4 16:54:17 10° W 16:58:07 19° NW 17:01:57 10° N
Cosmos 1758 Rocket 4.4 16:54:42 10° NNW 16:59:02 55° W 17:03:17 10° S
Cosmos 1553 Rocket 4.4 16:54:51 10° SSE 17:00:40 40° E 17:06:26 10° NNE
USA 307 3.1 16:57:05 10° WNW 17:01:20 58° NNE 17:04:41 16° E
Cosmos 2082 4.3 16:57:58 10° NNW 17:03:18 38° NE 17:08:37 10° ESE
Meteor 2-10 Rocket 4.4 16:59:18 10° SE 17:03:37 26° E 17:07:49 10° NE
Cosmos 2228 3.0 17:00:27 10° S 17:04:41 87° W 17:09:00 10° N
FALCON 9 DEB 3.6 17:01:44 10° SW 17:04:48 41° SSE 17:06:44 19° E
CZ-4B R/B 1.2 17:01:47 10° NNE 17:05:03 88° W 17:08:12 10° SSW
Cosmos 1939 Rocket 2.8 17:01:31 10° SSE 17:05:26 63° ENE 17:09:19 10° N
USA 308 3.1 17:01:55 10° WNW 17:06:10 60° NNE 17:09:20 17° E
ATLAS 5 CENTAUR R/B 3.6 17:05:08 10° WNW 17:08:36 21° NNW 17:12:28 10° NNE
CZ-4 R/B 4.5 17:05:54 10° SSE 17:09:58 57° ENE 17:14:05 10° N
Helios 1A Rocket 3.0 17:08:35 10° SSE 17:12:36 54° ENE 17:16:37 10° N
Cosmos 1606 Rocket 3.7 17:08:53 10° SSW 17:13:15 77° W 17:17:41 10° N
GENESIS II 4.4 17:12:17 10° SW 17:16:19 75° NW 17:20:07 12° NE
FALCON 9 DEB 3.2 17:13:17 10° SW 17:16:26 52° SSE 17:17:56 26° E
ARGOS 4.0 17:13:09 11° ESE 17:17:27 29° ENE 17:22:04 10° N
Okean-O 2.7 17:14:44 10° SSE 17:19:04 57° ENE 17:23:26 10° N
SKYMED 2 3.5 17:14:52 10° NNE 17:19:11 61° E 17:23:29 10° S
Cosmos 1689 Rocket 2.0 17:17:36 10° NNE 17:20:28 55° E 17:23:18 10° S
SL-08 R/B 4.4 17:15:04 10° N 17:21:15 67° ENE 17:27:19 10° SSE
Cosmos 1656 3.9 17:16:59 10° S 17:22:18 49° ESE 17:27:45 10° NE
Cosmos 1745 Rocket 4.1 17:18:15 10° N 17:24:25 53° ENE 17:30:35 10° SSE
Cosmos 1400 Rocket 2.7 17:20:53 10° S 17:24:58 71° E 17:29:03 10° NNE
H-2A R/B 2.5 17:21:51 10° SE 17:26:56 43° ENE 17:32:03 10° N
PSLV R/B 3.9 17:23:19 10° NNE 17:27:30 61° ESE 17:31:35 10° S
Ariane Rocket 4.4 17:27:38 19° ENE 17:27:53 19° ENE 17:31:26 10° NNE
GEOS 3 Rocket 3.8 17:24:32 17° ESE 17:28:37 57° NE 17:33:55 10° NW
Cosmos 2227 Rocket 2.1 17:23:01 10° NNW 17:28:43 85° ENE 17:34:24 10° SSE
Cosmos 2058 3.1 17:25:14 10° N 17:29:13 47° ENE 17:33:10 10° SSE
CZ-4 R/B 1.2 17:25:33 10° SSE 17:29:24 63° ENE 17:33:13 10° N
Cosmos 1892 2.6 17:26:43 10° N 17:30:35 67° ENE 17:34:26 10° SSE
Cosmos 2263 Rocket 3.4 17:29:35 10° NNW 17:34:10 24° NE 17:35:33 22° ENE
Cosmos 1408 2.7 17:31:13 10° N 17:34:47 48° ENE 17:37:15 18° SE
CSL-04 Rocket 3.9 17:29:53 10° SE 17:35:14 50° ENE 17:40:32 10° N
BREEZE-M R/B 3.4 17:28:03 10° W 17:36:02 86° S 17:37:09 37° E
NOSS 3-4 (A) 4.2 17:34:01 10° NW 17:40:27 44° NNE 17:44:11 26° E
NOSS 3-4 (C) 4.2 17:34:07 10° NW 17:40:33 44° NNE 17:44:16 26° E
CZ-4C R/B 3.8 17:35:14 10° NW 17:40:55 30° NNE 17:44:25 21° ENE
Meteor 2-1 Rocket 4.3 17:36:36 10° SSE 17:41:50 48° E 17:47:09 10° NNE
Cosmos 1300 4.0 17:39:47 10° SSW 17:43:25 41° WNW 17:47:03 10° N
Cosmos 2058 Rocket 3.4 17:42:11 10° SSW 17:46:38 70° W 17:51:10 10° N
Cosmos 1697 Rocket 3.0 17:41:41 10° S 17:46:55 42° ESE 17:49:37 25° NE
SL-4 R/B 1.7 17:44:42 10° WNW 17:48:17 68° N 17:49:04 50° ENE
SeaSat 1 2.7 17:46:28 32° ESE 17:48:18 47° NE 17:53:03 10° NNW
CZ-2D R/B 3.8 17:44:38 10° S 17:48:23 59° WSW 17:52:11 10° NNW
Cosmos 1346 Rocket 2.6 17:45:31 10° N 17:49:32 81° ENE 17:53:31 10° SSE
CRYOSAT 2 4.4 17:46:39 10° NNE 17:51:27 55° E 17:56:13 10° S
NOSS 3-3 (A) 4.2 17:46:12 10° S 17:51:40 44° ESE 17:54:18 29° ENE
Cosmos 1825 2.3 17:48:05 10° N 17:51:38 49° ENE 17:51:38 49° ENE
NOSS 3-3 (C) 4.2 17:46:17 10° S 17:51:48 44° ESE 17:54:24 30° ENE
USA 305 2.8 17:47:47 10° WNW 17:52:06 89° SW 17:53:27 44° ESE
Cosmos 1709 Rocket 4.1 17:47:58 10° N 17:54:11 52° ENE 17:59:42 13° SSE
USA 215 3.5 17:51:39 28° ENE 17:54:59 54° NNE 18:01:19 10° WNW
Cosmos 44 3.8 17:51:03 10° WSW 17:55:32 55° NW 17:59:04 17° NNE
Cosmos 1315 Rocket 2.8 17:52:16 10° S 17:56:08 54° E 17:56:20 54° E
SJ-11-01 4.1 17:53:43 11° SSE 17:58:08 73° ENE 18:02:49 10° N
USA 306 2.8 17:54:12 10° WNW 17:58:30 84° SSW 17:59:35 50° SE
BREEZE-M R/B 3.7 17:58:05 10° W 18:02:11 85° S 18:05:18 35° ESE
ATLAS 2AS CENTAUR R/B 3.2 17:55:16 10° NW 18:02:39 47° NNE 18:05:17 34° E
Cosmos 968 Rocket 4.0 17:58:50 10° NNW 18:03:59 61° WSW 18:09:04 10° S
Cosmos 1340 4.5 18:00:52 10° NNW 18:04:17 33° W 18:07:41 10° SSW
SJ 16-02 3.8 18:04:08 10° NNE 18:04:08 10° NNE 18:04:08 10° NNE
HJ-1C 4.2 18:07:27 41° N 18:07:27 41° N 18:09:48 10° N
COSMO-SKYMED 1 3.6 18:03:03 10° N 18:07:13 46° WNW 18:11:22 10° SW
MOS 1 Rocket 3.2 18:03:26 10° NNE 18:08:04 66° E 18:12:59 10° S
Cosmos 2297 Rocket 3.4 18:03:06 10° NW 18:08:26 43° WSW 18:13:43 10° S
Cosmos 1076 Rocket 3.3 18:05:14 10° N 18:09:31 89° E 18:11:35 30° S
Cosmos 1980 Rocket 3.4 18:04:36 10° S 18:07:19 25° SSE 18:07:19 25° SSE
Cosmos 1777 Rocket 4.5 18:06:10 10° NNW 18:10:50 40° NE 18:10:50 40° NE
Cosmos 883 Rocket 4.4 18:05:36 10° S 18:11:36 59° E 18:17:37 10° NNE
Aureole 3 Rocket 4.4 18:08:27 10° SW 18:12:25 44° WNW 18:17:55 10° N
Cosmos 2315 Rocket 4.0 18:09:41 10° SSE 18:15:39 52° E 18:21:38 10° NNE
CSL-04 Debris 4.2 18:10:13 10° SSE 18:15:39 79° WSW 18:21:11 10° NNW
S3M 3.9 18:10:03 10° S 18:16:10 86° W 18:22:23 10° N
Lacrosse 5 2.6 18:18:13 10° WNW 18:22:58 38° N 18:23:30 37° NNE
FALCON 9 DEB 4.2 18:19:41 10° WNW 18:22:07 42° NW 18:22:07 42° NW
YAOGAN 1 3.7 18:19:24 10° S 18:23:31 43° W 18:27:40 10° NNW
FALCON 9 DEB 4.5 18:21:22 10° W 18:23:30 36° W 18:23:30 36° W
ERBS 4.4 18:22:18 10° NW 18:24:02 21° NNW 18:24:02 21° NNW
Cosmos 2360 4.1 18:20:05 10° SSW 18:25:44 63° ESE 18:26:15 60° E
Cosmos 1812 Rocket 3.6 18:26:37 10° SSW 18:35:45 - N 18:30:37 71° SW
Cosmos 1455 3.0 18:28:07 10° SSW 18:31:13 48° WSW 18:31:13 48° WSW
CZ-2C R/B 4.2 18:28:05 10° S 18:33:39 47° W 18:39:05 10° NNW
Meteor 2-3 Rocket 4.0 18:29:58 10° N 18:34:43 50° NE 18:34:43 50° NE
USA 307 3.7 18:37:14 10° WNW 18:40:52 46° WSW 18:40:52 46° WSW
Meteor 2-10 Rocket 4.4 18:40:19 10° SSW 18:45:24 47° WNW 18:50:22 10° N
USA 308 4.0 18:42:05 10° WNW 18:45:31 42° WSW 18:45:31 42° WSW
ATLAS 5 CENTAUR R/B 3.9 18:51:40 10° NW 18:55:00 18° N 18:55:00 18° N
ARGOS 3.9 18:54:41 27° SSW 18:57:28 52° W 19:02:47 10° NNW
Cosmos 2369 3.9 18:56:59 10° SW 19:02:41 68° WNW 19:03:11 64° NNW
CZ-4 R/B 4.5 19:03:00 10° WSW 19:04:50 13° W 19:06:41 10° WNW
Ariane Rocket 3.8 19:07:51 45° NNW 19:07:51 45° NNW 19:11:25 10° NNW
H-2A R/B 3.7 19:01:32 10° SSW 19:06:26 34° W 19:11:23 10° NNW
Cosmos 1844 Rocket 4.4 19:02:45 10° NNW 19:05:18 21° N 19:05:18 21° N
Cosmos 2263 Rocket 2.9 19:13:04 10° NNW 19:17:16 51° NW 19:17:16 51° NW
SeaSat 1 3.9 19:26:16 32° WSW 19:26:16 32° WSW 19:30:24 10° NW
CZ-4C R/B 3.1 19:23:45 10° NW 19:29:36 60° N 19:29:36 60° N
Cosmos 1697 Rocket 3.8 19:25:40 10° WSW 19:30:56 40° NW 19:31:25 39° NW
NOSS 3-4 (A) 4.0 19:24:53 10° NW 19:31:39 66° WSW 19:31:39 66° WSW
NOSS 3-4 (C) 4.0 19:25:00 10° NW 19:31:43 66° WSW 19:31:43 66° WSW
USA 215 3.5 19:39:00 63° WNW 19:39:00 63° WNW 19:44:25 10° WNW
SJ 16-02 4.4 19:41:06 10° NNW 19:41:07 10° NNW 19:41:07 10° NNW
Cosmos 1980 Rocket 4.5 19:48:06 10° SW 19:49:11 16° WSW 19:49:11 16° WSW
ATLAS 2AS CENTAUR R/B 3.3 19:46:34 10° NW 19:52:43 54° W 19:52:43 54° W
Lacrosse 5 4.4 20:01:23 10° NW 20:02:41 18° NW 20:02:41 18° NW
